Content
SEND FEEDBACK

Daily
Averages
Monthly
Summary
United States of America

BEDFORD PARK, ILLINOIS


Home > North America > United States > Illinois
Elevation: 623 feet     Latitude: 41 46N     Longitude: 087 45W

WEATHER
 
SELECT A DAY
Number of Records: 189,622;   Date Range: 1/1/95 - 9/21/14
 
SHARE

PRINT THIS DATA

[ ← Previous Day ]
WEATHER ALMANAC - MARCH 29, 2014
[ Next Day → ]
[ °C ]   °F
Weather ElementAverageHighLow
Temperature35.1 °F39.9 °F (3:51 pm)30.9 °F (11:51 pm)
Dewpoint26.1 °F30.9 °F (8:51 am)12 °F (7:51 pm)
Humidity71.3 %89 % (8:51 am)40 % (7:51 pm)
Barometer30.22 in30.28 in (8:51 pm)30.14 in (4:30 am)
Wind Speed10.7 mph18.4 mph (1:51 pm)
Wind Gust24.2 mph (1:51 pm)
Weather ElementAverage
Visibility9.4 mi
Wind DirectionENE (80.7 °)

Weather ElementTotal
Precipitation---
Heating Degree Days29.6 (Base 65)
Averaged from 27 records on March 29, 2014
WEATHER CONDITIONS BREAKOUT
WIND DIRECTION BREAKOUT
WEATHER BY HOUR - MARCH 29, 2014
[ °C ]   °F
Local TimeTemperatureDewpointHumidityBarometerVisibilityWind DirectionWind SpeedGust SpeedPrecipitationEventsConditions
1:51 AM34.0 °F28.0 °F79 %30.20 in10.0 miNorth (360°)4.6 mphOvercast
2:51 AM34.0 °F28.0 °F79 %30.20 in9.0 miNNE (20°)8.1 mphOvercast
3:09 AM34.0 °F28.0 °F79 %30.17 in10.0 miNNE (20°)8.1 mphOvercast
3:51 AM34.0 °F28.0 °F79 %30.18 in10.0 miNNE (20°)9.2 mphOvercast
4:30 AM34.0 °F28.9 °F82 %30.14 in10.0 miNorth (360°)10.4 mphOvercast
4:51 AM34.0 °F28.9 °F82 %30.17 in9.0 miNorth (10°)10.4 mphOvercast
5:51 AM34.0 °F30.0 °F85 %30.18 in10.0 miNNE (30°)8.1 mphOvercast
6:51 AM34.0 °F30.0 °F85 %30.20 in7.0 miNNE (30°)10.4 mphOvercast
7:51 AM34.0 °F30.0 °F85 %30.21 in7.0 miNNE (20°)9.2 mphOvercast
8:51 AM34.0 °F30.9 °F89 %30.21 in6.0 miNNE (30°)13.8 mphOvercast
9:32 AM34.0 °F30.0 °F85 %30.20 in10.0 miNNE (20°)10.4 mphOvercast
9:51 AM35.1 °F30.9 °F85 %30.23 in9.0 miNNE (30°)12.7 mphOvercast
10:51 AM36.0 °F30.0 °F79 %30.24 in10.0 miNNE (20°)11.5 mphOvercast
11:51 AM36.0 °F30.0 °F79 %30.24 in8.0 miNorth (10°)15.0 mphOvercast
12:51 PM37.0 °F28.9 °F73 %30.24 in10.0 miNNE (20°)15.0 mphOvercast
1:51 PM37.0 °F28.9 °F73 %30.22 in10.0 miNNE (30°)18.4 mph24.2 mphOvercast
2:51 PM37.9 °F28.0 °F68 %30.21 in10.0 miNNE (20°)13.8 mphOvercast
3:51 PM39.9 °F28.0 °F63 %30.21 in10.0 miNorth (10°)15.0 mph23.0 mphMostly Cloudy
4:51 PM37.9 °F27.0 °F65 %30.22 in10.0 miNorth (360°)15.0 mphMostly Cloudy
5:06 PM37.9 °F27.0 °F65 %30.20 in10.0 miNorth (10°)15.0 mphScattered Clouds
5:51 PM39.0 °F27.0 °F62 %30.24 in10.0 miNNE (20°)11.5 mphPartly Cloudy
6:51 PM36.0 °F18.0 °F48 %30.27 in10.0 miNorth (10°)10.4 mphClear
7:51 PM34.0 °F12.0 °F40 %30.27 in10.0 miNorth (10°)8.1 mphClear
8:51 PM34.0 °F12.0 °F40 %30.28 in10.0 miNorth (10°)9.2 mphClear
9:51 PM32.0 °F16.0 °F52 %30.28 in10.0 miNorth (10°)5.8 mphClear
10:51 PM33.1 °F19.0 °F56 %30.28 in10.0 miNNW (340°)5.8 mphClear
11:51 PM30.9 °F21.0 °F67 %30.28 in10.0 miNorth (350°)4.6 mphClear
Hourly data recorded from KMDW, located miles away from Bedford Park, Illinois







STORIES FROM OUR PARTNERS